Change the Weather History Date:

Sunday, August 10, 2014

  Actual Average (KCYS) Record (KCYS)
Temperature  
Mean Temperature 64 °F 69 °F  
Max Temperature 78 °F 82 °F 96 °F (1969)
Min Temperature 51 °F 55 °F 34 °F (1876)
Degree Days  
Heating Degree Days 0 1  
Month to date heating degree days 10  
Since 1 June heating degree days 166  
Since 1 July heating degree days 32  
Cooling Degree Days 0 5  
Month to date cooling degree days 50  
Year to date cooling degree days 260  
Since 1 June cooling degree days 257  
Growing Degree Days 14 (Base 50)    
Moisture  
Dew Point 48 °F    
Average Humidity 57    
Maximum Humidity 94    
Minimum Humidity 23    
Precipitation  
Precipitation 0.00 in 0.08 in 0.53 in (1897)
Month to date precipitation 0.79  
Year to date precipitation 11.29  
Snow  
Snow 0.00 in 0.00 in - ()
Month to date snowfall 0.0  
Since 1 July snowfall 0.0  
Snow Depth -    
Sea Level Pressure  
Sea Level Pressure 30.33 in    
Wind  
Wind Speed 6 mph (North)    
Max Wind Speed 14 mph    
Max Gust Speed 21 mph    
Visibility 10 miles    
Events      
T = Trace of Precipitation, MM = Missing Value Source: NWS Daily Summary

Daily Weather History Graph

Daily Weather History Graph

Search for Another Location

Airport or City:

Trip Planner

Search our weather history database for the weather conditions in past years. The results will help you decide how hot, cold, wet, or windy it might be!

Date:

Astronomy

Aug. 10, 2014 Rise Set
Actual Time 6:01 AM MDT 8:01 PM MDT
Civil Twilight 5:30 AM MDT 8:31 PM MDT
Nautical Twilight 4:54 AM MDT 9:08 PM MDT
Astronomical Twilight 4:14 AM MDT 9:48 PM MDT
Moon 7:49 PM MDT (8/10) 5:56 AM MDT (8/10)
Length of Visible Light 15h 01m
Length of Day
14h 00m
Full, 100% of the Moon is Illuminated
Aug 10
Full
Aug 10
Full
Aug 17
Last Quarter
Aug 25
New
Sep 2
First Quarter

Hourly Weather History & Observations

Time (MDT) Temp. Dew Point Humidity Pressure Visibility Wind Dir Wind Speed Gust Speed Precip Events Conditions
12:15 AM 59.0 °F 51.8 °F 77% 30.27 in 10.0 mi NW 4.6 mph - N/A   Clear
12:35 AM 59.0 °F 51.8 °F 77% 30.28 in 10.0 mi NW 4.6 mph - N/A   Clear
12:55 AM 59.0 °F 50.0 °F 72% 30.28 in 10.0 mi NW 9.2 mph - N/A   Clear
1:15 AM 59.0 °F 50.0 °F 72% 30.28 in 10.0 mi NW 10.4 mph - N/A   Clear
1:35 AM 59.0 °F 50.0 °F 72% 30.29 in 10.0 mi NNW 8.1 mph - N/A   Clear
1:55 AM 57.2 °F 50.0 °F 77% 30.29 in 10.0 mi Calm Calm - N/A   Clear
2:15 AM 55.4 °F 50.0 °F 82% 30.29 in 10.0 mi WNW 5.8 mph - N/A   Clear
2:35 AM 55.4 °F 50.0 °F 82% 30.30 in 10.0 mi NW 3.5 mph - N/A   Clear
2:55 AM 55.4 °F 50.0 °F 82% 30.30 in 10.0 mi Calm Calm - N/A   Clear
3:15 AM 51.8 °F 50.0 °F 94% 30.30 in 10.0 mi East 3.5 mph - N/A   Clear
3:35 AM 53.6 °F 50.0 °F 88% 30.30 in 10.0 mi Calm Calm - N/A   Clear
4:15 AM 53.6 °F 50.0 °F 88% 30.30 in 10.0 mi NNW 3.5 mph - N/A   Clear
4:35 AM 51.8 °F 50.0 °F 94% 30.30 in 10.0 mi Calm Calm - N/A   Clear
4:55 AM 51.8 °F 50.0 °F 94% 30.30 in 10.0 mi Calm Calm - N/A   Clear
5:15 AM 53.6 °F 50.0 °F 88% 30.30 in 10.0 mi WNW 4.6 mph - N/A   Clear
5:35 AM 53.6 °F 50.0 °F 88% 30.30 in 10.0 mi NW 8.1 mph - N/A   Clear
5:55 AM 51.8 °F 50.0 °F 94% 30.32 in 10.0 mi NE 4.6 mph - N/A   Clear
6:15 AM 51.8 °F 50.0 °F 94% 30.33 in 10.0 mi Calm Calm - N/A   Clear
6:35 AM 51.8 °F 50.0 °F 94% 30.33 in 10.0 mi Calm Calm - N/A   Clear
6:55 AM 53.6 °F 51.8 °F 94% 30.33 in 10.0 mi North 3.5 mph - N/A   Clear
7:15 AM 55.4 °F 51.8 °F 88% 30.33 in 10.0 mi North 5.8 mph - N/A   Clear
7:35 AM 59.0 °F 51.8 °F 77% 30.33 in 10.0 mi North 6.9 mph - N/A   Clear
7:55 AM 60.8 °F 53.6 °F 77% 30.34 in 10.0 mi North 6.9 mph - N/A   Clear
8:15 AM 62.6 °F 53.6 °F 72% 30.35 in 10.0 mi North 8.1 mph - N/A   Clear
8:35 AM 64.4 °F 53.6 °F 68% 30.36 in 10.0 mi North 9.2 mph - N/A   Clear
8:55 AM 64.4 °F 53.6 °F 68% 30.36 in 10.0 mi North 10.4 mph - N/A   Clear
9:15 AM 66.2 °F 51.8 °F 60% 30.35 in 10.0 mi North 10.4 mph - N/A   Clear
9:35 AM 68.0 °F 51.8 °F 56% 30.36 in 10.0 mi North 10.4 mph - N/A   Clear
9:55 AM 69.8 °F 53.6 °F 56% 30.36 in 10.0 mi NNE 8.1 mph - N/A   Clear
10:15 AM 71.6 °F 51.8 °F 50% 30.36 in 10.0 mi North 10.4 mph - N/A   Clear
10:35 AM 71.6 °F 51.8 °F 50% 30.36 in 10.0 mi North 8.1 mph 16.1 mph N/A   Clear
10:55 AM 71.6 °F 50.0 °F 46% 30.36 in 10.0 mi North 9.2 mph - N/A   Clear
11:15 AM 73.4 °F 50.0 °F 44% 30.37 in 10.0 mi NE 8.1 mph - N/A   Scattered Clouds
11:35 AM 73.4 °F 50.0 °F 44% 30.37 in 10.0 mi NE 9.2 mph - N/A   Scattered Clouds
11:55 AM 73.4 °F 48.2 °F 41% 30.36 in 10.0 mi North 9.2 mph - N/A   Scattered Clouds
12:15 PM 73.4 °F 46.4 °F 38% 30.36 in 10.0 mi NNE 13.8 mph 19.6 mph N/A   Mostly Cloudy
12:35 PM 75.2 °F 46.4 °F 36% 30.36 in 10.0 mi NE 3.5 mph - N/A   Scattered Clouds
12:55 PM 77.0 °F 44.6 °F 32% 30.36 in 10.0 mi North 10.4 mph - N/A   Scattered Clouds
1:15 PM 77.0 °F 41.0 °F 28% 30.35 in 10.0 mi North 10.4 mph 19.6 mph N/A   Clear
1:35 PM 77.0 °F 42.8 °F 29% 30.35 in 10.0 mi NW 4.6 mph - N/A   Clear
1:55 PM 77.0 °F 41.0 °F 28% 30.34 in 10.0 mi North 10.4 mph 16.1 mph N/A   Clear
2:15 PM 77.0 °F 41.0 °F 28% 30.34 in 10.0 mi NNW 11.5 mph 20.7 mph N/A   Clear
2:35 PM 77.0 °F 41.0 °F 28% 30.33 in 10.0 mi NNE 11.5 mph - N/A   Clear
2:55 PM 78.8 °F 42.8 °F 28% 30.33 in 10.0 mi North 13.8 mph 18.4 mph N/A   Clear
3:15 PM 78.8 °F 37.4 °F 23% 30.33 in 10.0 mi North 12.7 mph 19.6 mph N/A   Clear
3:35 PM 78.8 °F 39.2 °F 24% 30.32 in 10.0 mi North 11.5 mph 19.6 mph N/A   Clear
3:55 PM 78.8 °F 39.2 °F 24% 30.32 in 10.0 mi North 9.2 mph 17.3 mph N/A   Clear
4:15 PM 78.8 °F 39.2 °F 24% 30.31 in 10.0 mi North 9.2 mph 19.6 mph N/A   Clear
4:35 PM 78.8 °F 39.2 °F 24% 30.32 in 10.0 mi NNE 6.9 mph - N/A   Clear
4:55 PM 78.8 °F 39.2 °F 24% 30.31 in 10.0 mi NNW 8.1 mph 16.1 mph N/A   Clear
5:15 PM 78.8 °F 39.2 °F 24% 30.31 in 10.0 mi NW 6.9 mph - N/A   Clear
5:35 PM 78.8 °F 41.0 °F 26% 30.31 in 10.0 mi North 6.9 mph - N/A   Clear
5:55 PM 77.0 °F 41.0 °F 28% 30.31 in 10.0 mi NNE 3.5 mph - N/A   Clear
6:15 PM 77.0 °F 41.0 °F 28% 30.31 in 10.0 mi North 8.1 mph - N/A   Clear
6:35 PM 77.0 °F 39.2 °F 26% 30.31 in 10.0 mi NNE 9.2 mph - N/A   Clear
6:55 PM 75.2 °F 41.0 °F 29% 30.31 in 10.0 mi NE 5.8 mph - N/A   Clear
7:15 PM 73.4 °F 42.8 °F 33% 30.31 in 10.0 mi ENE 4.6 mph - N/A   Clear
7:35 PM 71.6 °F 48.2 °F 43% 30.31 in 10.0 mi East 4.6 mph - N/A   Clear
7:55 PM 69.8 °F 48.2 °F 46% 30.32 in 10.0 mi East 3.5 mph - N/A   Clear
8:15 PM 66.2 °F 50.0 °F 56% 30.32 in 10.0 mi East 4.6 mph - N/A   Clear
8:35 PM 64.4 °F 50.0 °F 59% 30.33 in 10.0 mi East 5.8 mph - N/A   Clear
8:55 PM 62.6 °F 50.0 °F 63% 30.34 in 10.0 mi ESE 5.8 mph - N/A   Clear
9:15 PM 62.6 °F 50.0 °F 63% 30.35 in 10.0 mi SE 3.5 mph - N/A   Clear
9:35 PM 62.6 °F 50.0 °F 63% 30.35 in 10.0 mi ESE 3.5 mph - N/A   Clear
10:15 PM 60.8 °F 50.0 °F 68% 30.37 in 10.0 mi SE 6.9 mph - N/A   Clear
10:35 PM 60.8 °F 50.0 °F 68% 30.37 in 10.0 mi ESE 3.5 mph - N/A   Clear
10:55 PM 60.8 °F 50.0 °F 68% 30.37 in 10.0 mi Calm Calm - N/A   Clear
11:15 PM 60.8 °F 50.0 °F 68% 30.37 in 10.0 mi Calm Calm - N/A   Clear
11:35 PM 59.0 °F 50.0 °F 72% 30.38 in 10.0 mi South 5.8 mph - N/A   Clear
11:55 PM 60.8 °F 50.0 °F 68% 30.38 in 10.0 mi SSW 3.5 mph - N/A   Clear